This is the latest recevied weather packets stored in our database for station/object KC0QBU-13. If no packets are shown the sender has not sent any weather packets the latest 10 day(s).
| Time | Temp. | Humidity | Pressure | Rain* | Wind** | Luminosity | Snow |
|---|---|---|---|---|---|---|---|
| 1777857232 | 22.78° C | 42% | 1009.3 hPa | 0 mm | - | - | - |
| 1777856932 | 22.78° C | 41% | 1009.2 hPa | 0 mm | - | - | - |
| 1777856602 | 22.78° C | 43% | 1009.1 hPa | 0 mm | - | - | - |
| 1777856272 | 23.33° C | 41% | 1009.1 hPa | 0 mm | - | - | - |
| 1777855942 | 23.33° C | 41% | 1009.1 hPa | 0 mm | - | - | - |
| 1777855642 | 23.89° C | 40% | 1009.2 hPa | 0 mm | - | - | - |
| 1777855342 | 23.89° C | 36% | 1009.1 hPa | 0 mm | - | - | - |
| 1777855042 | 24.44° C | 37% | 1009.2 hPa | 0 mm | - | - | - |
| 1777854712 | 24.44° C | 36% | 1009.2 hPa | 0 mm | - | - | - |
| 1777854412 | 25° C | 34% | 1009.1 hPa | 0 mm | - | - | - |
| 1777854112 | 25° C | 34% | 1009.2 hPa | 0 mm | - | - | - |
| 1777853812 | 25.56° C | 33% | 1009.2 hPa | 0 mm | - | - | - |
| 1777853512 | 25.56° C | 31% | 1009.3 hPa | 0 mm | - | - | - |
| 1777853182 | 26.11° C | 30% | 1009.2 hPa | 0 mm | - | - | - |
| 1777852882 | 26.11° C | 30% | 1009.2 hPa | 0 mm | - | - | - |
| 1777852552 | 26.11° C | 30% | 1009.3 hPa | 0 mm | - | - | - |
| 1777852252 | 26.67° C | 29% | 1009.4 hPa | 0 mm | - | - | - |
| 1777851922 | 26.67° C | 29% | 1009.5 hPa | 0 mm | - | - | - |
| 1777851592 | 26.67° C | 28% | 1009.3 hPa | 0 mm | - | - | - |
| 1777851292 | 27.22° C | 28% | 1009.5 hPa | 0 mm | - | - | - |
| 1777850962 | 27.22° C | 27% | 1009.5 hPa | 0 mm | - | - | - |
| 1777850662 | 27.22° C | 26% | 1009.6 hPa | 0 mm | - | - | - |
| 1777850362 | 27.22° C | 28% | 1009.5 hPa | 0 mm | - | - | - |
| 1777850062 | 27.78° C | 27% | 1009.6 hPa | 0 mm | - | - | - |
| 1777849762 | 27.78° C | 26% | 1009.6 hPa | 0 mm | - | - | - |
* Rain latest hour (hover to see other rain measurements)
** Current wind speed in m/s (hover to see current wind gust speed)